C/2019 U5 ( PanSTARRS )

Japanese version
Home page
Updated on April 19, 2021

---------------------------------------------------------------------

* Profile

Discovery Date October 22, 2019
Magnitude 21.1 mag
Discoverer Pan-STARRS 1 telescope (Haleakala)

* Pictures

* Orbital Elements

Epoch 2023 Apr. 6.0 TT = JDT 2460040.5                                          
T 2023 Mar. 29.78486 TT                                 Rudenko                 
q   3.6239903            (2000.0)            P               Q                  
z  -0.0004291      Peri.  181.49468     -0.99908031     +0.00770484             
 +/-0.0000027      Node     2.63666     -0.02313771     +0.73133333             
e   1.0015552      Incl.  113.51997     -0.03609968     -0.68197668             
From 407 observations 2019 Oct. 11-2021 Mar. 19, mean residual 0".4.            

* Finding Charts

* Magnitudes Graph

        m1 = 0.0 + 5 log d + 15.0 log r

---------------------------------------------------------------------

The orbital elements are published on M.P.E.C. 2021-G80.
The charts are made with StellaNavigator Ver.10 (AstroArts).
The magnitudes graphs are made with Comet for Windows.

---------------------------------------------------------------------

Copyright(C) Seiichi Yoshida (comet@aerith.net). All rights reserved.